Location: Dunedin
(45.8670°S, 170.5000°E)
Time: 14:25:28
(UTC+13:00)

Cosmos 1818 - Pass Details

Date: 24 January 2019
Orbit: 775 x 799 km, 65.0° (Epoch: 13 October)

Event Time Altitude Azimuth Distance (km) Brightness Sun altitude
Exits shadow 23:49:52 15° 332° (NNW) 2,035 5.4 -19.4°
Maximum altitude 23:54:25 79° 56° (ENE) 823 3.5 -19.8°
Drops below altitude 10° 23:59:55 10° 142° (SE) 2,384 6.3 -20.3°
Sets 00:02:21 0° 143° (SE) 3,316 7.1 -20.5°
